[[{"header":{"parameterUnit":"m.s-1","parameterCategory":1,"la1":30.2991,"la2":30.254,"lo1":-89.0895,"lo2":-89.0444,"dy":0.0017,"dx":0.0017,"nx":28,"ny":28,"refTime":"2023-07-27T03:00:00:Z","depth":0,"parameterNumber":2,"parameterNumberName":"U-component_of_WINDS"},"data":[0,0,0,0,0,0,0,0,0,0,0,0,0,0,0,0,0,0,0,0,0,0,0,0,0,0,0,0,0,0,0,0,0,0,0,0,0,0,0,0,0,0,0,0,0,0,0,0,0,0,0,0,0,0,0,0,0,0,0.2342,0.2343,0,0.2417,0.2418,0.2419,0.2429,0.2428,0.2427,0.2427,0.2505,0.2508,0.2511,0,0,0,0,0,0,0,0,0,0,0,0,0,0.2208,0.2211,0.2342,0.2343,0.2344,0.2417,0.2418,0.2419,0.2429,0.2428,0.2427,0.2426,0.2504,0.2508,0.2511,0,0,0,0,0,0,0,0,0,0,0,0,0,0.2273,0.2212,0.2342,0.2357,0.236,0.2417,0.2418,0.242,0.2429,0.2428,0.2427,0.2426,0.2503,0.2507,0.2511,0.2559,0,0,0.2524,0.2526,0,0,0,0,0,0,0,0,0.227,0.2278,0.2354,0.2356,0.2359,0.2412,0.24,0.2466,0.2429,0.2403,0.2427,0.2425,0.2475,0.2482,0.2498,0.2563,0.2566,0.2524,0.2527,0.2529,0.253,0,0,0,0,0,0,0,0.2265,0.2275,0.2372,0.2355,0.2358,0.2361,0.2369,0.2413,0.2444,0.2405,0.2406,0.2415,0.2476,0.2494,0.25,0.2567,0.2524,0.2528,0.2531,0.2532,0.2675,0.2677,0,0,0,0,0,0,0.2258,0.2271,0.2369,0.2374,0.2311,0.2365,0.2374,0.2396,0.2444,0.245,0.2415,0.2415,0.2488,0.2495,0.2503,0.2562,0.2529,0.2533,0.2535,0.2674,0.2676,0.2677,0,0,0,0,0,0,0.2255,0.2266,0.2366,0.2323,0.2336,0.2368,0.2394,0.2399,0.2416,0.2452,0.2458,0.2428,0.2487,0.2497,0.2545,0.2565,0.2534,0.2538,0.2673,0.2675,0.2676,0.2681,0,0,0,0,0,0,0.2251,0.2265,0.2283,0.2323,0.2338,0.2406,0.2395,0.2401,0.2423,0.2423,0.2465,0.2471,0.2487,0.2539,0.2549,0.257,0.2541,0.2671,0.2673,0.2676,0.2679,0.2682,0.2686,0,0,0,0,0,0.2246,0.2281,0.2284,0.2295,0.2361,0.2408,0.2416,0.2434,0.2425,0.2443,0.2466,0.2469,0.2561,0.2544,0.2555,0.2578,0.267,0.2673,0.2676,0.2677,0.2682,0.2685,0,0,0,0,0,0,0.2242,0.2287,0.229,0.2339,0.237,0.2409,0.2433,0.2438,0.2472,0.247,0.2492,0.2501,0.2548,0.2568,0.2547,0.2627,0.2615,0.262,0.2612,0.2617,0.262,0.2614,0.2545,0,0,0,0,0,0.2247,0.2281,0.2318,0.2358,0.2373,0.24,0.2421,0.2432,0.2465,0.2478,0.2504,0.2536,0.2572,0.2596,0.2631,0.2682,0.2692,0.2704,0.2707,0.271,0.2714,0.2743,0.2749,0.2687,0.2687,0.2687,0,0,0.2258,0.2286,0.2306,0.2358,0.2383,0.2418,0.2411,0.2448,0.2474,0.2484,0.253,0.2551,0.2588,0.2638,0.2661,0.2656,0.2733,0.2713,0.2715,0.2718,0.2747,0.2752,0.2758,0.2689,0.2688,0.2688,0,0,0.2295,0.232,0.2356,0.2381,0.2418,0.2437,0.2445,0.2485,0.2498,0.2546,0.2554,0.2586,0.2647,0.2674,0.2695,0.2743,0.2747,0.2754,0.2772,0.28,0.2805,0.2809,0.2827,0.2832,0.2759,0.2759,0.2759,0,0.2303,0.2355,0.2374,0.2411,0.2433,0.2444,0.2481,0.2505,0.2552,0.2568,0.2561,0.264,0.2665,0.2722,0.2733,0.2751,0.2762,0.2749,0.2803,0.2807,0.2812,0.2828,0.2835,0.2759,0.2759,0.2759,0.2759,0,0.2364,0.24,0.2425,0.247,0.2496,0.2533,0.2558,0.2582,0.2591,0.261,0.2659,0.269,0.2732,0.2747,0.2756,0.2805,0.28,0.2798,0.2786,0.2818,0.2834,0.284,0.276,0.276,0.276,0.276,0,0,0.2399,0.2455,0.2464,0.2485,0.2528,0.2556,0.2594,0.2635,0.2655,0.2688,0.2721,0.2774,0.2772,0.2796,0.2809,0.2834,0.2871,0.2829,0.283,0.2835,0.2927,0.2927,0.2934,0.2874,0.2875,0.2876,0.2923,0,0.2441,0.2508,0.2526,0.2583,0.2617,0.2628,0.2661,0.2692,0.2711,0.2743,0.2765,0.2802,0.2797,0.2812,0.2837,0.2861,0.2889,0.2858,0.2905,0.2906,0.2894,0.2943,0.2944,0.2987,0.293,0.2931,0.2932,0,0.2498,0.2532,0.2592,0.2631,0.2646,0.2675,0.2715,0.2745,0.2781,0.2793,0.2821,0.2832,0.2873,0.2859,0.2916,0.2894,0.2915,0.293,0.2932,0.2936,0.292,0.2948,0.3001,0.3007,0.2942,0.2941,0.294,0,0.2518,0.2578,0.2622,0.264,0.2687,0.2707,0.2728,0.2762,0.2786,0.282,0.2836,0.2875,0.2897,0.2928,0.2949,0.2937,0.3004,0.2992,0.3016,0.3016,0.3029,0.3028,0.3085,0.3043,0.3043,0.3043,0.3043,0,0.2562,0.2598,0.2632,0.2659,0.27,0.2722,0.2762,0.2784,0.2814,0.2846,0.2858,0.2888,0.2915,0.2949,0.2966,0.3011,0.3021,0.3032,0.3036,0.3031,0.3029,0.3044,0.3041,0.3045,0.3044,0.3044,0.3044,0,0.259,0.2614,0.2663,0.2704,0.2715,0.2743,0.2779,0.2806,0.2826,0.2866,0.2877,0.2909,0.2949,0.2974,0.3026,0.3037,0.3087,0.309,0.3074,0.3076,0.3098,0.3096,0.3166,0.3176,0.3129,0.3129,0.3129,0,0.2616,0.2645,0.2688,0.271,0.2731,0.2767,0.2791,0.2814,0.2839,0.2881,0.2903,0.2945,0.2979,0.3043,0.3071,0.3111,0.3115,0.3137,0.3121,0.3115,0.3115,0.3113,0.3116,0.3139,0.314,0.314,0.314,0,0.266,0.2671,0.2705,0.2744,0.2772,0.2804,0.2836,0.2853,0.2882,0.2909,0.295,0.2977,0.303,0.3071,0.3113,0.3135,0.3143,0.3146,0.3153,0.3147,0.3137,0.3143,0.3081,0.3144,0.3143,0.3143,0.3143,0.3143,0.2688,0.2714,0.2749,0.2787,0.2813,0.2843,0.287,0.2894,0.2929,0.2973,0.2985,0.3028,0.3064,0.3121,0.3145,0.318,0.3176,0.3187,0.319,0.3192,0.3192,0.3132,0.3187,0.3187,0.3187,0.3187,0.3187,0,0.2733,0.2756,0.2791,0.2834,0.2864,0.2869,0.2905,0.293,0.2967,0.3,0.3033,0.3081,0.3121,0.3153,0.3195,0.3217,0.3221,0.3227,0.3225,0.323,0.3193,0.3182,0.3222,0.3222,0.3222,0.3222,0.3222,0.3222,0.2759,0.2803,0.2818,0.2875,0.2899,0.2941,0.2961,0.2988,0.3014,0.3067,0.3101,0.3121,0.3154,0.3198,0.3235,0.3243,0.3258,0.3263,0.3272,0.3236,0.3232,0.3229,0.3219,0.3266,0.3266,0.3306,0.3306,0.3306]},{"header":{"parameterUnit":"m.s-1","parameterCategory":1,"la1":30.2991,"la2":30.254,"lo1":-89.0895,"lo2":-89.0444,"dy":0.0017,"dx":0.0017,"nx":28,"ny":28,"refTime":"2023-07-27T03:00:00:Z","depth":0,"parameterNumber":3,"parameterNumberName":"V-component_of_WINDS"},"data":[0,0,0,0,0,0,0,0,0,0,0,0,0,0,0,0,0,0,0,0,0,0,0,0,0,0,0,0,0,0,0,0,0,0,0,0,0,0,0,0,0,0,0,0,0,0,0,0,0,0,0,0,0,0,0,0,0,0,-1.8049,-1.805,0,-1.8104,-1.8105,-1.8105,-1.8145,-1.8145,-1.8145,-1.8146,-1.8199,-1.82,-1.8201,0,0,0,0,0,0,0,0,0,0,0,0,0,-1.7976,-1.7977,-1.8049,-1.805,-1.805,-1.8104,-1.8105,-1.8105,-1.8145,-1.8145,-1.8145,-1.8146,-1.8199,-1.82,-1.8201,0,0,0,0,0,0,0,0,0,0,0,0,0,-1.8017,-1.7977,-1.8049,-1.8076,-1.8079,-1.8104,-1.8105,-1.8106,-1.8145,-1.8145,-1.8146,-1.8146,-1.8198,-1.82,-1.8202,-1.8202,0,0,-1.8207,-1.8207,0,0,0,0,0,0,0,0,-1.8014,-1.8019,-1.8072,-1.8075,-1.8078,-1.8118,-1.8099,-1.8138,-1.8144,-1.812,-1.8146,-1.8146,-1.8172,-1.8175,-1.8185,-1.8204,-1.8207,-1.8207,-1.8208,-1.8209,-1.8209,0,0,0,0,0,0,0,-1.8012,-1.8017,-1.8071,-1.8072,-1.8076,-1.8085,-1.8092,-1.8106,-1.8142,-1.8122,-1.8125,-1.8131,-1.8173,-1.8183,-1.8186,-1.8208,-1.8207,-1.8208,-1.8209,-1.821,-1.8232,-1.8232,0,0,0,0,0,0,-1.8005,-1.8015,-1.8069,-1.8072,-1.8047,-1.8086,-1.8093,-1.8105,-1.8142,-1.8148,-1.8131,-1.8133,-1.818,-1.8184,-1.8188,-1.8193,-1.8209,-1.821,-1.8211,-1.8233,-1.8232,-1.8232,0,0,0,0,0,0,-1.8003,-1.8009,-1.8067,-1.8044,-1.8052,-1.8087,-1.8099,-1.8105,-1.8115,-1.8149,-1.8155,-1.8134,-1.818,-1.8186,-1.8199,-1.8195,-1.8211,-1.8212,-1.8233,-1.8233,-1.8232,-1.8201,0,0,0,0,0,0,-1.8001,-1.8008,-1.8009,-1.8044,-1.8053,-1.8077,-1.8099,-1.8106,-1.8118,-1.8122,-1.8153,-1.8159,-1.8181,-1.8196,-1.8201,-1.8198,-1.8214,-1.8234,-1.8233,-1.8232,-1.8202,-1.8199,-1.8196,0,0,0,0,0,-1.7998,-1.7997,-1.8009,-1.8015,-1.8055,-1.8077,-1.8082,-1.8108,-1.8118,-1.8119,-1.8141,-1.8158,-1.8195,-1.8197,-1.8202,-1.82,-1.8234,-1.8233,-1.8232,-1.8203,-1.82,-1.8196,0,0,0,0,0,0,-1.7959,-1.8002,-1.8016,-1.8026,-1.8048,-1.8083,-1.8085,-1.8103,-1.8121,-1.8123,-1.8154,-1.8161,-1.8171,-1.8187,-1.8189,-1.8203,-1.8217,-1.8217,-1.8193,-1.8189,-1.8187,-1.8183,-1.8215,0,0,0,0,0,-1.7952,-1.7967,-1.8003,-1.8008,-1.8019,-1.805,-1.806,-1.8079,-1.8102,-1.8111,-1.8133,-1.8154,-1.8171,-1.8181,-1.8197,-1.8204,-1.8212,-1.8205,-1.8202,-1.82,-1.82,-1.8206,-1.8204,-1.8229,-1.8229,-1.8229,0,0,-1.7937,-1.7962,-1.7969,-1.8001,-1.802,-1.8034,-1.8057,-1.8071,-1.8082,-1.8112,-1.8127,-1.8144,-1.817,-1.818,-1.8186,-1.8193,-1.8194,-1.8198,-1.8196,-1.8198,-1.8205,-1.8202,-1.82,-1.8228,-1.8228,-1.8228,0,0,-1.7918,-1.7938,-1.7946,-1.7964,-1.7993,-1.8014,-1.8016,-1.8049,-1.8063,-1.8078,-1.8102,-1.8114,-1.8142,-1.8159,-1.8172,-1.816,-1.8178,-1.8165,-1.815,-1.8156,-1.8154,-1.8152,-1.8149,-1.8148,-1.8164,-1.8164,-1.8164,0,-1.7895,-1.7918,-1.7947,-1.796,-1.7974,-1.8004,-1.8012,-1.8028,-1.806,-1.8069,-1.8077,-1.8113,-1.8132,-1.8148,-1.8146,-1.8154,-1.8158,-1.8162,-1.8152,-1.815,-1.8149,-1.8147,-1.8146,-1.8163,-1.8163,-1.8163,-1.8163,0,-1.789,-1.7905,-1.7908,-1.7941,-1.7954,-1.7965,-1.7995,-1.8005,-1.8023,-1.8043,-1.8059,-1.8083,-1.8106,-1.8111,-1.8127,-1.8129,-1.8133,-1.8146,-1.816,-1.8145,-1.8143,-1.8142,-1.816,-1.8161,-1.8161,-1.8162,0,0,-1.7847,-1.7897,-1.7897,-1.7913,-1.7947,-1.796,-1.7971,-1.7995,-1.8004,-1.8025,-1.8036,-1.8059,-1.8072,-1.8086,-1.8105,-1.811,-1.8101,-1.8122,-1.8123,-1.8119,-1.8107,-1.8098,-1.8096,-1.8113,-1.8112,-1.8112,-1.8105,0,-1.7834,-1.7858,-1.7885,-1.79,-1.7915,-1.7944,-1.7955,-1.7977,-1.7996,-1.8011,-1.8032,-1.8049,-1.8064,-1.8073,-1.8079,-1.8101,-1.8099,-1.8102,-1.8123,-1.8124,-1.8117,-1.8095,-1.8085,-1.8077,-1.8104,-1.8104,-1.8104,0,-1.7822,-1.7844,-1.786,-1.7895,-1.7902,-1.7911,-1.7936,-1.795,-1.7976,-1.799,-1.8006,-1.8027,-1.8041,-1.8053,-1.8073,-1.8074,-1.8084,-1.8097,-1.8097,-1.8101,-1.8114,-1.8099,-1.8075,-1.8074,-1.8103,-1.8103,-1.8103,0,-1.7791,-1.7824,-1.7839,-1.7851,-1.7892,-1.7898,-1.7914,-1.7941,-1.7954,-1.7975,-1.7984,-1.8006,-1.8018,-1.8034,-1.806,-1.8066,-1.8078,-1.8092,-1.809,-1.8089,-1.8092,-1.8091,-1.807,-1.8096,-1.8096,-1.8096,-1.8096,0,-1.7774,-1.7784,-1.7826,-1.7835,-1.7847,-1.7877,-1.7888,-1.7907,-1.793,-1.7944,-1.7969,-1.7981,-1.8014,-1.803,-1.805,-1.8064,-1.8069,-1.808,-1.8086,-1.8079,-1.8078,-1.8087,-1.8088,-1.8096,-1.8096,-1.8096,-1.8096,0,-1.7742,-1.7771,-1.7789,-1.7826,-1.7836,-1.7843,-1.7875,-1.7885,-1.7906,-1.7922,-1.7928,-1.796,-1.798,-1.8008,-1.8035,-1.8049,-1.8061,-1.8069,-1.8053,-1.8056,-1.8053,-1.8054,-1.8038,-1.8038,-1.8063,-1.8063,-1.8062,0,-1.773,-1.7738,-1.7777,-1.7788,-1.7805,-1.7823,-1.7837,-1.7867,-1.788,-1.7911,-1.7918,-1.794,-1.7959,-1.7989,-1.8015,-1.8037,-1.8046,-1.8039,-1.805,-1.8043,-1.8048,-1.8048,-1.8049,-1.8037,-1.8037,-1.8036,-1.8036,0,-1.7706,-1.772,-1.774,-1.7765,-1.7782,-1.7802,-1.7824,-1.7832,-1.7867,-1.7881,-1.7902,-1.7917,-1.7947,-1.7969,-1.7994,-1.8011,-1.8029,-1.8032,-1.8034,-1.8027,-1.8018,-1.8024,-1.8047,-1.8033,-1.8033,-1.8033,-1.8034,-1.8034,-1.7685,-1.7694,-1.7723,-1.7745,-1.7765,-1.7785,-1.7797,-1.782,-1.7839,-1.7866,-1.7883,-1.7904,-1.793,-1.7966,-1.7982,-1.7999,-1.8006,-1.8007,-1.8008,-1.8008,-1.8006,-1.8014,-1.8003,-1.8004,-1.8004,-1.8004,-1.8004,0,-1.7663,-1.7684,-1.7703,-1.7734,-1.7751,-1.7768,-1.7794,-1.7807,-1.7825,-1.7849,-1.7868,-1.7893,-1.7915,-1.7943,-1.7966,-1.7974,-1.7984,-1.798,-1.798,-1.7984,-1.7998,-1.7995,-1.7972,-1.7972,-1.7972,-1.7972,-1.7972,-1.7972,-1.7654,-1.7672,-1.7689,-1.7717,-1.7737,-1.7759,-1.7772,-1.7791,-1.7811,-1.7838,-1.7857,-1.7875,-1.7901,-1.7927,-1.7947,-1.7955,-1.7963,-1.7957,-1.7967,-1.798,-1.7983,-1.7985,-1.7983,-1.7958,-1.7958,-1.7952,-1.7952,-1.7952]}]]